Preview of NWS' New Version of Forecast
This preview is not operational and should not be used for support decisions.

Regional Weather Roundup (RWR)

Issued by National Weather Service (NWS)

                            
000
ASUS43 KMKX 221620
RWRWI 

WISCONSIN REGIONAL WEATHER ROUNDUP
NATIONAL WEATHER SERVICE MILWAUKEE/SULLIVAN WI
1100 AM CDT MON APR 22 2019

NOTE: "FAIR" INDICATES FEW OR NO CLOUDS BELOW 12,000 FEET WITH NO
SIGNIFICANT WEATHER AND/OR OBSTRUCTIONS TO VISIBILITY.

WIZ001-002-006>008-014>016-023>028-221700-
NORTHWEST WISCONSIN
  
CITY           SKY/WX    TMP DP  RH WIND       PRES   REMARKS
SUPERIOR ARPT  LGT RAIN  36  34  95 NE14G24   30.15F WCI  27          
ASHLAND        RAIN      36  36 100 NE14      30.16R FOG     WCI  27  
HAYWARD        RAIN      41  39  93 NE13      30.06S FOG              
SIREN          LGT RAIN  42  41  98 NE12G17   30.02R                  
CUMBERLAND     LGT RAIN  41  37  87 NE20      29.97F                  
RICE LAKE      LGT RAIN  43  34  69 NE17G25   29.97F                  
CHETEK         CLOUDY    47  41  78 NE8G17    29.98S                  
LADYSMITH      CLOUDY    47  42  82 N17       30.02R                  
EAU CLAIRE     CLOUDY    53  39  59 N14G21    29.94R                  
MENOMONIE      CLOUDY    49  37  63 N7        29.98R                  
NEW RICHMOND   LGT RAIN  45  42  91 SW8       30.04R                  
OSCEOLA        CLOUDY    45  43  93 N6        30.02R                  
$$
 
WIZ003>005-009-010-017-018-221700-
NORTH CENTRAL WISCONSIN
  
CITY           SKY/WX    TMP DP  RH WIND       PRES   REMARKS
MANITOWISH WTR CLOUDY    41  41 100 NE12      30.04S                  
ARBOR VITAE    CLOUDY    44  42  93 NE10G16   30.03R                  
WOODRUFF       CLOUDY    44  42  93 NE10G16   30.03R                  
RHINELANDER    FAIR      50  39  66 E10       30.01S                  
EAGLE RIVER    CLOUDY    46  44  93 E9        30.03R                  
LAND O LAKES   CLOUDY    43  42  95 NE7       30.07R                  
PHILLIPS       CLOUDY    43  41  93 NE10G18   30.02R                  
TOMAHAWK       CLOUDY    52  40  64 NE9       29.98F                  
MEDFORD        CLOUDY    52  39  61 E12       29.94S                  
MERRILL        FAIR      55  42  63 NE9G16    29.96F                  
$$
 
WIZ029-030-035-036-043>047-221700-
CENTRAL WISCONSIN
  
CITY           SKY/WX    TMP DP  RH WIND       PRES   REMARKS
WAUSAU         NOT AVBL                                               
MOSINEE        PTSUNNY   54  37  54 E9        29.96F                  
MARSHFIELD     FAIR      55  41  59 E12       29.92F                  
STEVENS POINT  FAIR      52  38  57 E8        29.96F                  
WAUPACA        FAIR      57  41  55 NE6       29.96F                  
WAUTOMA        FAIR      58  42  55 NE12      29.94                   
WISC RAPIDS    FAIR      57  38  48 E12       29.94F                  
CAMP DOUGLAS   CLOUDY    64  46  52 E8        29.91S                  
$$
 
WIZ011>013-019>022-031-037>040-048>050-221700-
NORTHEAST WISCONSIN
  
CITY           SKY/WX    TMP DP  RH WIND       PRES   REMARKS
ANTIGO         FAIR      56  41  57 E10       29.99S                  
SHAWANO        FAIR      54  41  60 NE8       29.97F                  
OCONTO         FAIR      52  39  60 NE8       30.01F                  
STURGEON BAY   FAIR      54  41  61 S6        30.01F                  
GREEN BAY      FAIR      55  43  63 NE10      29.99R                  
MANITOWOC      FAIR      49  39  68 SE7       30.00F                  
APPLETON       PTSUNNY   55  37  50 NE8       29.96F                  
CLINTONVILLE   FAIR      55  38  54 NE8       29.97F                  
OSHKOSH        FAIR      57  44  62 NE9       29.94F                  
$$
 
WIZ032>034-041-042-053>061-221700-
SOUTHWEST WISCONSIN
  
CITY           SKY/WX    TMP DP  RH WIND       PRES   REMARKS
LA CROSSE      CLOUDY    69  47  45 S10       29.89R                  
SPARTA         CLOUDY    70  49  48 S5        29.90R                  
VIROQUA        PTSUNNY   66  51  57 SW13      29.92R                  
BOSCOBEL       TSTM      69  51  52 VRB6G20   29.90R                  
PRAIRIE DU CHI LGT RAIN  65  52  62 S3        29.89S                  
PLATTEVILLE    CLOUDY    68  52  57 S9        29.92F                  
$$

WIZ056-057-062-063-064-067-068-221700-
SOUTH CENTRAL WISCONSIN
  
CITY           SKY/WX    TMP DP  RH WIND       PRES   REMARKS
REEDSBURG      FAIR      73  51  46 S13G18    29.91S                  
BARABOO/DELLS  FAIR      71  47  41 S9        29.92R                  
LONE ROCK      FAIR      71  50  47 S13G21    29.91R                  
MINERAL POINT  FAIR      72  52  49 SW15      29.92S                  
MADISON        PTSUNNY   67  48  50 S12       29.93S                  
MIDDLETON      FAIR      69  49  48 S12       29.93S                  
WATERTOWN      FAIR      68  49  50 S10       29.95S                  
MONROE         FAIR      70  49  46 MISG      29.94S                  
JANESVILLE     PTSUNNY   70  48  46 S15G21    29.96S                  
$$
 
WIZ051-052-058>065-066-070>072-221700-
SOUTHEAST WISCONSIN
  
CITY           SKY/WX    TMP DP  RH WIND       PRES   REMARKS
MILWAUKEE      PTSUNNY   64  45  49 SE15      29.96F                  
WAUKESHA       SUNNY     66  46  48 S12       29.98F                  
MILWAUKEE/TIMM SUNNY     68  43  40 S9        29.97F                  
RACINE         FAIR      55  40  56 S14       30.00F                  
KENOSHA        FAIR      71  50  47 S12       29.98F                  
FOND DU LAC    FAIR      61  46  57 NE3       29.94F                  
SHEBOYGAN      FAIR      58  43  57 S7        29.96F                  
WEST BEND      FAIR      70  45  40 S12       29.95F                  
JUNEAU         FAIR      67  49  51 S8        29.95S                  
$$

LSZ147-162-221700-
LAKE SUPERIOR
  
STATION/POSITION TIME  TEMP    WIND        PRES    WAVE
                       AIR SEA DIR/SP/G            HT/PER
                 (UTC) (F)     (DEG/KT/KT) (MB)    (FT/S)
$$
 
LMZ867-665-643>646-221700-
LAKE MICHIGAN
  
STATION/POSITION TIME  TEMP    WIND        PRES    WAVE
                       AIR SEA DIR/SP/G            HT/PER
                 (UTC) (F)     (DEG/KT/KT) (MB)    (FT/S)
NORTHPORT PIER   1600   42     100/  1/ 10 1016.6
KEWAUNEE LAKESHO 1554   43     120/  3/  6 1015.4S
SHEBOYGAN LAKESH 1600   42     170/ 17/ 19 1015.2F
MILWAUKEE LAKESH 1600   43                   N/A
KENOSHA   LAKESH 1600   45     180/  8/ 14 1015.6
$$

TC  - TEMPERATURE IN CELSIUS
VSB - VISIBILITY IN STATUTE MILES
WCI - WIND CHILL INDEX
HX  - HEAT INDEX